Time,TemperatureF,DewpointF,PressureIn,WindDirection,WindDirectionDegrees,WindSpeedMPH,WindSpeedGustMPH,Humidity,HourlyPrecipIn,Conditions,Clouds,dailyrainin,SoftwareType,DateUTC
2013-05-11 00:03:00,77.0,72.0,30.06,South,172,7.0,11.0,82,-99.99,,,-99.99,,2013-05-11 04:03:00,
2013-05-11 00:12:00,77.0,71.0,30.06,South,173,7.0,11.0,82,-99.99,,,-99.99,,2013-05-11 04:12:00,
2013-05-11 00:23:00,77.0,71.0,30.06,South,173,7.0,11.0,82,-99.99,,,-99.99,,2013-05-11 04:23:00,
2013-05-11 00:33:00,77.0,72.0,30.06,South,170,5.0,10.0,81,-99.99,,,-99.99,,2013-05-11 04:33:00,
2013-05-11 00:43:00,77.0,72.0,30.06,South,173,6.0,10.0,82,-99.99,,,-99.99,,2013-05-11 04:43:00,
2013-05-11 00:52:00,78.0,72.0,30.07,South,175,5.0,9.0,82,-99.99,,,-99.99,,2013-05-11 04:52:00,
2013-05-11 01:02:00,78.0,72.0,30.07,South,175,5.0,9.0,82,-99.99,,,-99.99,,2013-05-11 05:02:00,
2013-05-11 01:12:00,78.0,72.0,30.07,South,174,5.0,10.0,83,-99.99,,,-99.99,,2013-05-11 05:12:00,
2013-05-11 01:22:00,78.0,72.0,30.07,South,174,5.0,10.0,83,-99.99,,,-99.99,,2013-05-11 05:22:00,
2013-05-11 01:32:00,78.0,72.0,30.07,South,174,5.0,10.0,83,-99.99,,,-99.99,,2013-05-11 05:32:00,
2013-05-11 01:42:00,78.0,72.0,30.07,South,176,4.0,7.0,83,-99.99,,,-99.99,,2013-05-11 05:42:00,
2013-05-11 01:52:00,77.0,72.0,30.06,South,186,4.0,8.0,84,-99.99,,,-99.99,,2013-05-11 05:52:00,
2013-05-11 02:02:00,77.0,72.0,30.06,South,186,4.0,8.0,84,-99.99,,,-99.99,,2013-05-11 06:02:00,
2013-05-11 02:12:00,77.0,72.0,30.06,South,177,3.0,8.0,86,-99.99,,,-99.99,,2013-05-11 06:12:00,
2013-05-11 02:22:00,77.0,72.0,30.06,South,177,3.0,8.0,86,-99.99,,,-99.99,,2013-05-11 06:22:00,
2013-05-11 02:32:00,77.0,72.0,30.06,SSE,166,1.0,2.0,86,-99.99,,,-99.99,,2013-05-11 06:32:00,
2013-05-11 02:42:00,76.0,73.0,30.05,SSW,208,2.0,5.0,89,-99.99,,,-99.99,,2013-05-11 06:42:00,
2013-05-11 02:53:00,75.0,72.0,30.05,SSW,204,1.0,3.0,89,-99.99,,,-99.99,,2013-05-11 06:53:00,
2013-05-11 03:02:00,75.0,72.0,30.05,SSW,204,1.0,3.0,89,-99.99,,,-99.99,,2013-05-11 07:02:00,
2013-05-11 03:12:00,74.0,71.0,30.04,SW,228,1.0,5.0,90,-99.99,,,-99.99,,2013-05-11 07:12:00,
2013-05-11 03:22:00,74.0,71.0,30.04,SW,228,1.0,5.0,90,-99.99,,,-99.99,,2013-05-11 07:22:00,
2013-05-11 03:32:00,74.0,72.0,30.04,SW,232,2.0,4.0,91,-99.99,,,-99.99,,2013-05-11 07:32:00,
2013-05-11 03:42:00,74.0,71.0,30.04,SSW,199,2.0,4.0,90,-99.99,,,-99.99,,2013-05-11 07:42:00,
2013-05-11 03:52:00,74.0,71.0,30.03,SSE,160,2.0,4.0,91,-99.99,,,-99.99,,2013-05-11 07:52:00,
2013-05-11 04:02:00,74.0,71.0,30.03,SSE,160,2.0,4.0,91,-99.99,,,-99.99,,2013-05-11 08:02:00,
2013-05-11 04:12:00,74.0,71.0,30.03,SSE,159,2.0,3.0,92,-99.99,,,-99.99,,2013-05-11 08:12:00,
2013-05-11 04:21:00,74.0,71.0,30.03,SSE,159,2.0,3.0,92,-99.99,,,-99.99,,2013-05-11 08:21:00,
2013-05-11 04:32:00,74.0,71.0,30.03,SSE,159,2.0,3.0,92,-99.99,,,-99.99,,2013-05-11 08:32:00,
2013-05-11 04:42:00,74.0,72.0,30.03,South,178,3.0,4.0,93,-99.99,,,-99.99,,2013-05-11 08:42:00,
2013-05-11 04:52:00,74.0,71.0,30.03,South,169,0.0,1.0,92,-99.99,,,-99.99,,2013-05-11 08:52:00,
2013-05-11 05:01:00,74.0,71.0,30.03,South,169,0.0,1.0,92,-99.99,,,-99.99,,2013-05-11 09:01:00,
2013-05-11 05:12:00,74.0,72.0,30.03,SSE,164,1.0,2.0,93,-99.99,,,-99.99,,2013-05-11 09:12:00,
2013-05-11 05:21:00,74.0,72.0,30.03,SSE,164,1.0,2.0,93,-99.99,,,-99.99,,2013-05-11 09:21:00,
2013-05-11 05:32:00,74.0,72.0,30.03,SSE,164,1.0,2.0,93,-99.99,,,-99.99,,2013-05-11 09:32:00,
2013-05-11 05:42:00,73.0,71.0,30.03,South,175,0.0,2.0,93,-99.99,,,-99.99,,2013-05-11 09:42:00,
2013-05-11 05:53:00,74.0,72.0,30.03,SSE,147,1.0,2.0,94,-99.99,,,-99.99,,2013-05-11 09:53:00,
2013-05-11 06:03:00,74.0,72.0,30.03,SSE,147,1.0,2.0,94,-99.99,,,-99.99,,2013-05-11 10:03:00,
2013-05-11 06:12:00,74.0,72.0,30.04,South,179,0.0,1.0,94,-99.99,,,-99.99,,2013-05-11 10:12:00,
2013-05-11 06:22:00,74.0,72.0,30.04,South,179,0.0,1.0,94,-99.99,,,-99.99,,2013-05-11 10:22:00,
2013-05-11 06:33:00,74.0,72.0,30.04,WSW,246,1.0,2.0,94,-99.99,,,-99.99,,2013-05-11 10:33:00,
2013-05-11 06:42:00,73.0,72.0,30.04,South,177,1.0,2.0,94,-99.99,,,-99.99,,2013-05-11 10:42:00,
2013-05-11 06:53:00,73.0,72.0,30.03,South,181,2.0,6.0,94,-99.99,,,-99.99,,2013-05-11 10:53:00,
2013-05-11 07:03:00,73.0,72.0,30.03,South,181,2.0,6.0,94,-99.99,,,-99.99,,2013-05-11 11:03:00,
2013-05-11 07:12:00,74.0,72.0,30.03,South,179,3.0,5.0,94,-99.99,,,-99.99,,2013-05-11 11:12:00,
2013-05-11 07:22:00,74.0,72.0,30.03,South,179,3.0,5.0,94,-99.99,,,-99.99,,2013-05-11 11:22:00,
2013-05-11 07:32:00,74.0,72.0,30.03,South,179,3.0,5.0,94,-99.99,,,-99.99,,2013-05-11 11:32:00,
2013-05-11 07:42:00,74.0,72.0,30.04,SSE,151,2.0,3.0,93,-99.99,,,-99.99,,2013-05-11 11:42:00,
2013-05-11 07:52:00,74.0,72.0,30.05,South,169,2.0,4.0,92,-99.99,,,-99.99,,2013-05-11 11:52:00,
2013-05-11 08:01:00,74.0,72.0,30.05,South,169,2.0,4.0,92,-99.99,,,-99.99,,2013-05-11 12:01:00,
2013-05-11 08:11:00,76.0,73.0,30.05,SSW,204,2.0,5.0,90,-99.99,,,-99.99,,2013-05-11 12:11:00,
2013-05-11 08:22:00,76.0,73.0,30.05,SSW,204,2.0,5.0,90,-99.99,,,-99.99,,2013-05-11 12:22:00,
2013-05-11 08:32:00,76.0,73.0,30.05,SSW,204,2.0,5.0,90,-99.99,,,-99.99,,2013-05-11 12:32:00,
2013-05-11 08:42:00,78.0,74.0,30.06,South,188,2.0,5.0,86,-99.99,,,-99.99,,2013-05-11 12:42:00,
2013-05-11 08:52:00,79.0,74.0,30.06,South,180,2.0,6.0,85,-99.99,,,-99.99,,2013-05-11 12:52:00,
2013-05-11 09:02:00,79.0,74.0,30.06,South,180,2.0,6.0,85,-99.99,,,-99.99,,2013-05-11 13:02:00,
2013-05-11 09:11:00,79.0,74.0,30.06,South,186,4.0,9.0,84,-99.99,,,-99.99,,2013-05-11 13:11:00,
2013-05-11 09:21:00,79.0,74.0,30.06,South,186,4.0,9.0,84,-99.99,,,-99.99,,2013-05-11 13:21:00,
2013-05-11 09:32:00,79.0,74.0,30.06,South,186,4.0,9.0,84,-99.99,,,-99.99,,2013-05-11 13:32:00,
2013-05-11 09:42:00,80.0,73.0,30.06,South,175,5.0,12.0,79,-99.99,,,-99.99,,2013-05-11 13:42:00,
2013-05-11 09:52:00,81.0,73.0,30.06,SSW,192,2.0,6.0,78,-99.99,,,-99.99,,2013-05-11 13:52:00,
2013-05-11 10:02:00,81.0,73.0,30.06,SSW,192,2.0,6.0,78,-99.99,,,-99.99,,2013-05-11 14:02:00,
2013-05-11 10:11:00,81.0,72.0,30.06,SSW,195,6.0,14.0,74,-99.99,,,-99.99,,2013-05-11 14:11:00,
2013-05-11 10:21:00,81.0,72.0,30.06,SSW,195,6.0,14.0,74,-99.99,,,-99.99,,2013-05-11 14:21:00,
2013-05-11 10:32:00,81.0,72.0,30.06,SSW,195,6.0,14.0,74,-99.99,,,-99.99,,2013-05-11 14:32:00,
2013-05-11 10:42:00,81.0,71.0,30.06,South,172,11.0,18.0,71,-99.99,,,-99.99,,2013-05-11 14:42:00,
2013-05-11 10:52:00,81.0,71.0,30.06,South,177,10.0,20.0,71,-99.99,,,-99.99,,2013-05-11 14:52:00,
2013-05-11 11:01:00,81.0,71.0,30.06,South,177,10.0,20.0,71,-99.99,,,-99.99,,2013-05-11 15:01:00,
2013-05-11 11:12:00,81.0,70.0,30.06,South,169,13.0,21.0,70,-99.99,,,-99.99,,2013-05-11 15:12:00,
2013-05-11 11:22:00,81.0,70.0,30.06,South,169,13.0,21.0,70,-99.99,,,-99.99,,2013-05-11 15:22:00,
2013-05-11 11:32:00,82.0,71.0,30.05,South,169,14.0,21.0,69,-99.99,,,-99.99,,2013-05-11 15:32:00,
2013-05-11 11:43:00,82.0,71.0,30.05,South,169,14.0,21.0,69,-99.99,,,-99.99,,2013-05-11 15:43:00,
2013-05-11 11:53:00,82.0,71.0,30.06,SSE,167,14.0,21.0,69,-99.99,,,-99.99,,2013-05-11 15:53:00,
2013-05-11 12:03:00,82.0,71.0,30.06,SSE,167,14.0,21.0,69,-99.99,,,-99.99,,2013-05-11 16:03:00,
2013-05-11 12:12:00,82.0,70.0,30.05,SSE,167,13.0,23.0,67,-99.99,,,-99.99,,2013-05-11 16:12:00,
2013-05-11 12:23:00,82.0,70.0,30.05,SSE,167,13.0,23.0,67,-99.99,,,-99.99,,2013-05-11 16:23:00,
2013-05-11 12:33:00,82.0,70.0,30.05,SSE,167,13.0,23.0,67,-99.99,,,-99.99,,2013-05-11 16:33:00,
2013-05-11 12:42:00,81.0,71.0,30.05,SSE,163,14.0,23.0,69,-99.99,,,-99.99,,2013-05-11 16:42:00,
2013-05-11 12:53:00,81.0,71.0,30.04,SSE,165,15.0,26.0,70,-99.99,,,-99.99,,2013-05-11 16:53:00,
2013-05-11 13:02:00,81.0,71.0,30.04,SSE,165,15.0,26.0,70,-99.99,,,-99.99,,2013-05-11 17:02:00,
2013-05-11 13:12:00,81.0,71.0,30.04,SSE,162,16.0,25.0,71,-99.99,,,-99.99,,2013-05-11 17:12:00,
2013-05-11 13:22:00,81.0,71.0,30.04,SSE,162,16.0,25.0,71,-99.99,,,-99.99,,2013-05-11 17:22:00,
2013-05-11 13:30:00,81.0,71.0,30.03,SSE,161,16.0,23.0,71,-99.99,,,-99.99,,2013-05-11 17:30:00,
2013-05-11 13:32:00,81.0,71.0,30.04,SSE,159,15.0,22.0,71,-99.99,,,-99.99,,2013-05-11 17:32:00,
2013-05-11 13:42:00,82.0,71.0,30.03,South,169,15.0,24.0,69,-99.99,,,-99.99,,2013-05-11 17:42:00,
2013-05-11 13:52:00,81.0,71.0,30.03,SSE,161,16.0,23.0,71,-99.99,,,-99.99,,2013-05-11 17:52:00,
2013-05-11 14:01:00,81.0,71.0,30.03,SSE,161,16.0,23.0,71,-99.99,,,-99.99,,2013-05-11 18:01:00,
2013-05-11 14:12:00,81.0,71.0,30.03,SSE,161,16.0,23.0,71,-99.99,,,-99.99,,2013-05-11 18:12:00,
2013-05-11 14:21:00,81.0,71.0,30.03,SSE,161,16.0,23.0,71,-99.99,,,-99.99,,2013-05-11 18:21:00,
2013-05-11 14:42:00,80.0,71.0,30.02,South,169,15.0,22.0,72,-99.99,,,-99.99,,2013-05-11 18:42:00,
2013-05-11 14:52:00,80.0,72.0,30.03,South,186,9.0,20.0,76,-99.99,,,-99.99,,2013-05-11 18:52:00,
2013-05-11 15:02:00,80.0,72.0,30.03,South,186,9.0,20.0,76,-99.99,,,-99.99,,2013-05-11 19:02:00,
2013-05-11 15:11:00,79.0,73.0,30.03,South,170,10.0,19.0,82,-99.99,,,-99.99,,2013-05-11 19:11:00,
2013-05-11 15:22:00,79.0,73.0,30.03,South,170,10.0,19.0,82,-99.99,,,-99.99,,2013-05-11 19:22:00,
2013-05-11 15:32:00,79.0,73.0,30.03,South,170,10.0,19.0,82,-99.99,,,-99.99,,2013-05-11 19:32:00,
2013-05-11 15:42:00,80.0,73.0,30.02,South,176,9.0,16.0,78,-99.99,,,-99.99,,2013-05-11 19:42:00,
2013-05-11 15:53:00,80.0,73.0,30.02,South,176,9.0,16.0,78,-99.99,,,-99.99,,2013-05-11 19:53:00,
2013-05-11 16:02:00,80.0,73.0,30.02,South,176,9.0,16.0,78,-99.99,,,-99.99,,2013-05-11 20:02:00,
2013-05-11 16:12:00,81.0,73.0,30.00,SSE,156,13.0,18.0,75,-99.99,,,-99.99,,2013-05-11 20:12:00,
2013-05-11 16:22:00,81.0,73.0,30.00,SSE,156,13.0,18.0,75,-99.99,,,-99.99,,2013-05-11 20:22:00,
2013-05-11 16:32:00,81.0,73.0,30.00,SSE,156,13.0,18.0,75,-99.99,,,-99.99,,2013-05-11 20:32:00,
2013-05-11 16:42:00,81.0,73.0,30.00,SSE,156,13.0,18.0,75,-99.99,,,-99.99,,2013-05-11 20:42:00,
2013-05-11 16:52:00,80.0,72.0,29.99,SSE,164,16.0,26.0,75,-99.99,,,-99.99,,2013-05-11 20:52:00,
2013-05-11 17:02:00,80.0,72.0,29.99,SSE,164,16.0,26.0,75,-99.99,,,-99.99,,2013-05-11 21:02:00,
2013-05-11 17:12:00,80.0,72.0,29.99,South,171,15.0,26.0,74,-99.99,,,-99.99,,2013-05-11 21:12:00,
2013-05-11 17:22:00,80.0,72.0,29.99,South,171,15.0,26.0,74,-99.99,,,-99.99,,2013-05-11 21:22:00,
2013-05-11 17:33:00,80.0,72.0,29.99,South,171,15.0,26.0,74,-99.99,,,-99.99,,2013-05-11 21:33:00,
2013-05-11 17:43:00,80.0,71.0,29.98,South,172,14.0,21.0,74,-99.99,,,-99.99,,2013-05-11 21:43:00,
2013-05-11 17:53:00,80.0,71.0,29.99,SSE,167,15.0,23.0,73,-99.99,,,-99.99,,2013-05-11 21:53:00,
2013-05-11 18:02:00,80.0,71.0,29.99,SSE,167,15.0,23.0,73,-99.99,,,-99.99,,2013-05-11 22:02:00,
2013-05-11 18:13:00,80.0,71.0,29.98,SSE,168,13.0,22.0,75,-99.99,,,-99.99,,2013-05-11 22:13:00,
2013-05-11 18:23:00,80.0,71.0,29.98,SSE,168,13.0,22.0,75,-99.99,,,-99.99,,2013-05-11 22:23:00,
2013-05-11 18:33:00,79.0,72.0,29.98,South,174,10.0,18.0,76,-99.99,,,-99.99,,2013-05-11 22:33:00,
2013-05-11 18:42:00,79.0,72.0,29.98,South,174,10.0,18.0,76,-99.99,,,-99.99,,2013-05-11 22:42:00,
2013-05-11 18:52:00,79.0,71.0,29.98,South,178,11.0,23.0,77,-99.99,,,-99.99,,2013-05-11 22:52:00,
2013-05-11 19:02:00,79.0,71.0,29.98,South,178,11.0,23.0,77,-99.99,,,-99.99,,2013-05-11 23:02:00,
2013-05-11 19:12:00,79.0,71.0,29.98,South,182,9.0,17.0,76,-99.99,,,-99.99,,2013-05-11 23:12:00,
2013-05-11 19:22:00,79.0,71.0,29.98,South,182,9.0,17.0,76,-99.99,,,-99.99,,2013-05-11 23:22:00,
2013-05-11 19:32:00,79.0,71.0,29.98,South,182,9.0,17.0,76,-99.99,,,-99.99,,2013-05-11 23:32:00,
2013-05-11 19:42:00,79.0,71.0,30.01,South,181,8.0,12.0,75,-99.99,,,-99.99,,2013-05-11 23:42:00,
2013-05-11 19:52:00,79.0,71.0,30.01,South,189,3.0,10.0,75,-99.99,,,-99.99,,2013-05-11 23:52:00,
2013-05-11 20:01:00,79.0,71.0,30.01,South,189,3.0,10.0,75,-99.99,,,-99.99,,2013-05-12 00:01:00,
2013-05-11 20:12:00,79.0,71.0,30.02,South,182,5.0,13.0,75,-99.99,,,-99.99,,2013-05-12 00:12:00,
2013-05-11 20:21:00,79.0,71.0,30.02,South,182,5.0,13.0,75,-99.99,,,-99.99,,2013-05-12 00:21:00,
2013-05-11 20:32:00,79.0,71.0,30.02,South,182,5.0,13.0,75,-99.99,,,-99.99,,2013-05-12 00:32:00,
2013-05-11 20:42:00,78.0,69.0,30.03,SW,217,5.0,17.0,74,-99.99,,,-99.99,,2013-05-12 00:42:00,
2013-05-11 20:52:00,73.0,68.0,30.04,SW,230,2.0,10.0,83,-99.99,,,-99.99,,2013-05-12 00:52:00,
2013-05-11 21:01:00,73.0,68.0,30.04,SW,230,2.0,10.0,83,-99.99,,,-99.99,,2013-05-12 01:01:00,
2013-05-11 21:11:00,73.0,69.0,30.03,SSW,192,1.0,6.0,86,-99.99,,,-99.99,,2013-05-12 01:11:00,
2013-05-11 21:21:00,73.0,69.0,30.03,SSW,192,1.0,6.0,86,-99.99,,,-99.99,,2013-05-12 01:21:00,
2013-05-11 21:32:00,73.0,69.0,30.03,SSW,192,1.0,6.0,86,-99.99,,,-99.99,,2013-05-12 01:32:00,
2013-05-11 21:42:00,72.0,69.0,30.04,SSW,203,1.0,4.0,89,-99.99,,,-99.99,,2013-05-12 01:42:00,
2013-05-11 21:52:00,72.0,69.0,30.04,SSW,193,1.0,4.0,90,-99.99,,,-99.99,,2013-05-12 01:52:00,
2013-05-11 22:02:00,72.0,69.0,30.04,SSW,193,1.0,4.0,90,-99.99,,,-99.99,,2013-05-12 02:02:00,
2013-05-11 22:12:00,73.0,71.0,30.04,SSW,201,1.0,4.0,91,-99.99,,,-99.99,,2013-05-12 02:12:00,
2013-05-11 22:22:00,73.0,71.0,30.04,SSW,201,1.0,4.0,91,-99.99,,,-99.99,,2013-05-12 02:22:00,
2013-05-11 22:32:00,74.0,71.0,30.06,NW,315,10.0,19.0,89,-99.99,,,-99.99,,2013-05-12 02:32:00,
2013-05-11 22:42:00,74.0,69.0,30.06,SE,143,8.0,16.0,84,-99.99,,,-99.99,,2013-05-12 02:42:00,
2013-05-11 22:52:00,71.0,68.0,30.07,SSE,163,8.0,14.0,89,-99.99,,,-99.99,,2013-05-12 02:52:00,
2013-05-11 23:02:00,71.0,68.0,30.07,SSE,163,8.0,14.0,89,-99.99,,,-99.99,,2013-05-12 03:02:00,
2013-05-11 23:11:00,71.0,69.0,30.07,NW,306,9.0,17.0,92,-99.99,,,-99.99,,2013-05-12 03:11:00,
2013-05-11 23:22:00,71.0,69.0,30.07,NW,306,9.0,17.0,92,-99.99,,,-99.99,,2013-05-12 03:22:00,
2013-05-11 23:33:00,71.0,68.0,30.08,South,174,8.0,17.0,90,-99.99,,,-99.99,,2013-05-12 03:33:00,
2013-05-11 23:43:00,71.0,68.0,30.07,ESE,104,6.0,12.0,90,-99.99,,,-99.99,,2013-05-12 03:43:00,
2013-05-11 23:53:00,71.0,68.0,30.06,South,178,2.0,4.0,92,-99.99,,,-99.99,,2013-05-12 03:53:00,